| time (UTC) | temp F | wind direction | speed MPH | gust MPH | rain 1hr in | rain 24hr in | rain mn in | humidity % | barometer mb |
| 20260505003033 | 63 | 209 | 0.0 | 5.0 | 0.00 | 0.00 | 0.00 | 46 | 1007.6 |
| 20260505001534 | 64 | 209 | 1.0 | 5.0 | 0.00 | 0.00 | 0.00 | 45 | 1007.1 |
| 20260505000051 | 65 | 246 | 1.0 | 9.0 | 0.00 | 0.00 | 0.00 | 43 | 1006.9 |
| 20260504234538 | 66 | 237 | 1.0 | 6.0 | 0.00 | 0.00 | 0.00 | 38 | 1006.7 |
| 20260504233032 | 67 | 193 | 4.0 | 12.0 | 0.00 | 0.00 | 0.00 | 36 | 1006.5 |
| 20260504231535 | 68 | 297 | 1.0 | 10.0 | 0.00 | 0.00 | 0.00 | 34 | 1006.2 |
| 20260504230048 | 69 | 227 | 4.0 | 13.0 | 0.00 | 0.00 | 0.00 | 37 | 1006.2 |
| 20260504224531 | 70 | 297 | 2.0 | 11.0 | 0.00 | 0.00 | 0.00 | 36 | 1005.9 |
| 20260504223034 | 70 | 177 | 5.0 | 14.0 | 0.00 | 0.00 | 0.00 | 35 | 1005.9 |
| 20260504221549 | 70 | 224 | 4.0 | 14.0 | 0.00 | 0.00 | 0.00 | 35 | 1005.9 |
| 20260504220035 | 71 | 218 | 2.0 | 11.0 | 0.00 | 0.00 | 0.00 | 32 | 1005.9 |
| 20260504214537 | 71 | 276 | 4.0 | 19.0 | 0.00 | 0.00 | 0.00 | 34 | 1005.9 |
| 20260504213043 | 71 | 101 | 7.0 | 14.0 | 0.00 | 0.00 | 0.00 | 34 | 1005.7 |
| 20260504211543 | 71 | 293 | 5.0 | 15.0 | 0.00 | 0.00 | 0.00 | 34 | 1006.0 |
| 20260504210032 | 70 | 317 | 3.0 | 19.0 | 0.00 | 0.00 | 0.00 | 31 | 1006.0 |
| 20260504204538 | 70 | 263 | 4.0 | 15.0 | 0.00 | 0.00 | 0.00 | 35 | 1005.7 |
| 20260504203033 | 71 | 300 | 2.0 | 19.0 | 0.00 | 0.00 | 0.00 | 34 | 1005.8 |
| 20260504201535 | 70 | 270 | 5.0 | 17.0 | 0.00 | 0.00 | 0.00 | 34 | 1005.9 |
| 20260504200034 | 69 | 255 | 4.0 | 18.0 | 0.00 | 0.00 | 0.00 | 34 | 1005.8 |
| 20260504194532 | 70 | 243 | 7.0 | 19.0 | 0.00 | 0.00 | 0.00 | 34 | 1006.1 |
| 20260504193032 | 69 | 304 | 5.0 | 15.0 | 0.00 | 0.00 | 0.00 | 34 | 1006.1 |
| 20260504191540 | 70 | 196 | 7.0 | 13.0 | 0.00 | 0.00 | 0.00 | 33 | 1006.0 |
| 20260504190036 | 69 | 285 | 5.0 | 24.0 | 0.00 | 0.00 | 0.00 | 30 | 1006.1 |
| 20260504184535 | 68 | 238 | 6.0 | 16.0 | 0.00 | 0.00 | 0.00 | 34 | 1006.2 |
| 20260504183034 | 70 | 198 | 9.0 | 20.0 | 0.00 | 0.00 | 0.00 | 28 | 1006.4 |
| 20260504181535 | 71 | 323 | 2.0 | 18.0 | 0.00 | 0.00 | 0.00 | 30 | 1006.5 |
| 20260504180032 | 69 | 278 | 8.0 | 28.0 | 0.00 | 0.00 | 0.00 | 34 | 1006.5 |
| 20260504174535 | 68 | 326 | 6.0 | 20.0 | 0.00 | 0.00 | 0.00 | 35 | 1006.7 |
| 20260504173036 | 68 | 195 | 5.0 | 18.0 | 0.00 | 0.00 | 0.00 | 35 | 1006.9 |
| 20260504171535 | 68 | 231 | 7.0 | 21.0 | 0.00 | 0.00 | 0.00 | 36 | 1006.7 |
| 20260504081534 | 42 | 0 | 0.0 | 0.0 | 0.00 | 0.00 | 0.00 | 71 | 1009.8 |
| 20260504044532 | 39 | 267 | 0.0 | 2.0 | 0.00 | 0.00 | 0.00 | 72 | 1009.5 |
| 20260504043031 | 38 | 0 | 0.0 | 2.0 | 0.00 | 0.00 | 0.00 | 73 | 1009.4 |
| 20260504041534 | 38 | 0 | 0.0 | 1.0 | 0.00 | 0.00 | 0.00 | 75 | 1009.4 |
| 20260504040041 | 38 | 289 | 0.0 | 1.0 | 0.00 | 0.00 | 0.00 | 74 | 1009.4 |
| 20260504034536 | 38 | 0 | 0.0 | 0.0 | 0.00 | 0.00 | 0.00 | 75 | 1009.3 |
| 20260504033037 | 38 | 0 | 0.0 | 0.0 | 0.00 | 0.00 | 0.00 | 75 | 1009.3 |
| 20260504031537 | 38 | 0 | 0.0 | 0.0 | 0.00 | 0.00 | 0.00 | 75 | 1009.3 |
| 20260504030034 | 38 | 0 | 0.0 | 0.0 | 0.00 | 0.00 | 0.00 | 72 | 1009.3 |
| 20260504024533 | 39 | 0 | 0.0 | 0.0 | 0.00 | 0.00 | 0.00 | 74 | 1009.3 |
| 20260504023033 | 39 | 0 | 0.0 | 0.0 | 0.00 | 0.00 | 0.00 | 70 | 1009.3 |
| 20260504021532 | 40 | 0 | 0.0 | 0.0 | 0.00 | 0.00 | 0.00 | 71 | 1009.2 |
| 20260504020032 | 40 | 0 | 0.0 | 0.0 | 0.00 | 0.00 | 0.00 | 72 | 1009.1 |
| 20260504014536 | 40 | 0 | 0.0 | 0.0 | 0.00 | 0.00 | 0.00 | 67 | 1009.0 |
| 20260504013036 | 41 | 0 | 0.0 | 0.0 | 0.00 | 0.00 | 0.00 | 69 | 1008.8 |
| 20260504011534 | 41 | 0 | 0.0 | 0.0 | 0.00 | 0.00 | 0.00 | 68 | 1008.8 |
| 20260504010032 | 42 | 0 | 0.0 | 0.0 | 0.00 | 0.00 | 0.00 | 63 | 1008.6 |
| 20260504004539 | 43 | 0 | 0.0 | 0.0 | 0.00 | 0.00 | 0.00 | 58 | 1008.5 |